www.pogodaiklimat.ru

Погода и климат >> Архив погоды >> Россия >> Якутия >> Суон-Тит


ПОГОДА в Суон-Тите

  • Прогноз погоды в Суон-Тите
  • Монитор погоды в Суон-Тите

АРХИВ ПОГОДЫ в Суон-Тите

Время (UTC), дата Ветер
(напр.,м/с)
 
Видим.   Явления Облачность Т
(С)
Тd
(С)
f
(%)
Тe
(С)
Тes
(С)
Комфортность P
(гПа)
Po
(гПа)
Тmin
(С)
Tmax
(С)
R
(мм)
R24
(мм)
S
(см)
00 15.09 СВ 1 50 км 10/8 600 м
[Sc Ac As]
+2.1 +1.3 94 0 0 1001.3 951.1 -2.7
03 15.09 С 1 50 км {дождь} 10/4 600 м
[St Ac As]
+4.2 +1.4 82 +3 +4 1002.5 952.7
06 15.09 С 2 50 км {дождь} 10/4 600 м
[Sc Ac As]
+4.0 +0.6 78 +1 +2 1004.3 954.4
09 15.09 С 2 50 км 10/4 1000 м
[Sc Ac As]
+3.3 -2.7 65 +1 +1 1006.8 956.6
12 15.09 С 1 50 км 10/0
[Cs]
-1.2 -3.7 83 -3 -3 1009.2 958.0 +4.7 0.3
15 15.09 штиль 0 50 км 10/0
[Cs]
-1.9 -2.8 94 -3 -3 1009.3 958.1
18 15.09 штиль 0 50 км 10/0
[Cs]
-2.9 -3.9 93 -4 -4 1009.5 958.1
21 15.09 штиль 0 50 км 9/9 1000 м
[Sc]
-2.9 -3.9 93 -4 -4 1009.8 958.4
00 16.09 СЗ 1 50 км 10/10 600 м
[Sc]
+0.8 -2.9 76 -1 -1 1009.7 958.8 -4.8
03 16.09 С 2 50 км 10/6 1000 м
[Sc Ac As]
+3.3 -4.9 55 +1 +2 1009.6 959.2
06 16.09 С 1 50 км 10/6 1000 м
[Sc Ac As]
+5.1 -4.2 51 +4 +5 1009.1 959.1
09 16.09 СЗ 1 50 км 10/8 600 м
[Cb cap Ac As]
+4.6 -5.1 49 +4 +4 1010.6 960.4
12 16.09 СЗ 1 50 км 10/10 600 м
[Sc]
+2.7 -5.0 57 +2 +2 1012.7 962.0 +6.0
15 16.09 СЗ 1 50 км 10/8 600 м
[Sc As op]
+2.6 -2.9 67 +1 +1 1013.5 962.8
18 16.09 штиль 0 50 км 10/8 600 м
[Sc diur, vesp As op]
+2.0 -2.7 71 +1 +1 1014.4 963.6
21 16.09 штиль 0 20 км слаб. снег 10/6 600 м
[Sc As op]
+0.2 -1.5 88 -1 -1 1014.8 964.2
00 17.09 штиль 0 10 км слаб. снег 10/6 600 м
[Sc As op]
+0.6 -1.1 88 -1 -0 1016.3 965.0 -0.2 1
03 17.09 ЮВ 1 50 км {снег} 10/6 600 м
[Cb cap As op]
+3.8 +1.5 85 +2 +3 1015.8 965.3
06 17.09 СЗ 2 50 км {снег} 10/4 600 м
[Cb cap As op]
+5.6 -0.1 67 +3 +4 1015.6 965.3
09 17.09 СЗ 3 50 км слаб. морось 10/3 1000 м
[Sc As op]
+3.7 -1.2 70 0 0 1017.2 966.5
12 17.09 СЗ 2 10 км слаб. морось 10/3 600 м
[Sc As op]
+2.2 -2.1 73 -1 -1 1019.1 968.1 +6.3 0.8
15 17.09 СЗ 1 20 км слаб. снег {морось} 10/0
[As op]
+1.4 -2.7 74 -0 -0 1019.4 968.2
18 17.09 штиль 0 20 км слаб. снег {морось} 10/0
[As op]
+0.8 -3.1 75 -0 -0 1019.6 968.2
21 17.09 СВ 1 50 км {снег} 10/6 600 м
[Sc As op]
+1.2 -0.4 89 -1 -1 1020.3 968.5
00 18.09 С 1 50 км {снег} 10/6 1000 м
[Sc]
+1.7 -4.1 65 0 +1 1020.1 968.9 +0.8 0.0
03 18.09 СВ 2 50 км 10/5 1000 м
[Sc Ac trans Ci fib]
+5.7 -4.9 46 +4 +5 1019.2 968.8
06 18.09 СЗ 2 50 км 10/9 1000 м
[Sc]
+6.5 -4.8 44 +5 +5 1018.5 968.2
09 18.09 С 1 50 км 9/9 1000 м
[Sc]
+5.1 -2.4 58 +4 +4 1019.0 968.6
12 18.09 Ю 1 50 км ясно -0.5 -5.0 72 -2 -2 1020.1 968.5 +7.7
15 18.09 Ю 1 50 км 3/0
[Ci fib]
-4.4 -6.0 89 -7 -7 1019.7 967.3
18 18.09 штиль 0 50 км 3/0
[Ci fib]
-5.3 -6.7 90 -6 -6 1018.7 966.2
21 18.09 штиль 0 50 км 9/3 1000 м
[Sc Ac trans]
-6.4 -7.2 94 -7 -7 1016.0 963.5
00 19.09 Ю 2 50 км 10/6 1000 м
[Sc Ac As]
+1.1 -6.3 58 -2 -2 1010.1 960.1 -7.5
03 19.09 Ю 2 10 км слаб. дождь 10/8 1000 м
[Sc As op]
+2.0 -3.0 69 -1 -1 1009.1 958.6
06 19.09 ЮВ 1 50 км {дождь} 10/10 600 м
[Sc]
+4.7 -1.9 62 +4 +4 1008.9 958.8
09 19.09 штиль 0 50 км 10/3 600 м
[Sc Ac trans Ci fib]
+4.0 +2.0 87 +3 +3 1011.0 960.8
12 19.09 штиль 0 50 км 10/0
[Ac trans Cs]
+0.9 -0.2 92 -0 -0 1015.0 964.0 +5.3 0.3
15 19.09 Ю 1 4000 м слаб. ливневой снег 10/10 600 м
[Cb cap]
+1.0 -0.4 90 -1 -1 1017.6 966.5
18 19.09 штиль 0 50 км {ливн. осадки} 10/8 600 м
[Cb cap Cs]
+0.8 -0.3 92 -0 -0 1019.3 967.9
21 19.09 штиль 0 50 км 10/10 600 м
[Cb cap]
+0.7 -1.6 85 -0 -0 1021.5 970.0
00 20.09 Ю 1 50 км 10/10 600 м
[Cb cap]
+1.5 -0.7 85 -0 -0 1023.0 971.6 -0.4 0.4
03 20.09 СЗ 1 50 км 10/6 1000 м
[Sc Ac As]
+4.7 -1.0 67 +4 +5 1023.0 972.2
06 20.09 СВ 1 50 км 9/9 1000 м
[Cb cap]
+6.7 -4.5 45 +6 +7 1021.9 971.4
09 20.09 Ю 2 50 км 8/8 1000 м
[Sc]
+6.5 -4.1 47 +5 +5 1021.5 971.0
12 20.09 Ю 1 50 км ясно -2.3 -5.3 80 -4 -4 1022.4 970.3 +7.5
15 20.09 штиль 0 50 км 10/0
[Cs]
-4.3 -5.2 93 -5 -5 1021.2 968.8
18 20.09 штиль 0 50 км 10/0
[Cs]
-5.1 -5.8 95 -6 -6 1020.3 967.7
21 20.09 Ю 2 4000 м слаб. ливневой снег 10/10 600 м
[Cb cap]
+0.5 -1.1 89 -3 -3 1016.8 965.5
00 21.09 Ю 2 10 км слаб. ливневой дождь 10/10 600 м
[Cb cap]
+1.2 +0.1 92 -2 -2 1016.4 965.3 -5.3 4
03 21.09 Ю 3 50 км {ливн. осадки} 10/0
[As op]
+3.2 +1.9 91 -1 0 1015.8 965.1
06 21.09 Ю 2 50 км {ливн. осадки} 9/8 600 м
[Cu Sc Ac trans]
+5.2 +3.5 89 +3 +3 1015.4 965.1
09 21.09 Ю 2 4000 м 8/4 1000 м
[Sc Ac trans]
+7.7 +4.3 79 +6 +6 1015.1 965.3
12 21.09 ЮЗ 1 50 км 10/6 600 м
[Sc Ac As]
+5.7 +3.8 88 +4 +4 1015.3 965.1 -8.2 0.0
15 21.09 Ю 1 50 км 8/4 600 м
[Sc Ac trans]
+5.5 +3.6 88 +4 +4 1014.7 964.5
18 21.09 штиль 0 50 км 9/4 600 м
[Sc Ac trans]
+4.9 +3.5 91 +4 +4 1014.2 964.0
21 21.09 Ю 1 50 км 9/5 1000 м
[Sc Ac trans]
+4.3 +2.6 89 +3 +3 1013.8 963.4

 

Местоположение метеостанции Суон-Тит (Якутия, Россия): широта 58.07 долгота 123.71 высота над уровнем моря 405 м.

В архиве по умолчанию представлена погода в Суон-Тите за последнюю неделю. Архивные данные за месяц целиком и за предыдущие месяцы, начиная с января 2011 года, Вы можете получить, выбрав интересующий диапазон дат из раскрывающегося списка и нажав кнопку "Ввод!".


*Определитесь, кто Вы:
робот инопланетянин человек

Внимание! Время в таблицах - всемирное. Для получения местного времени необходимо прибавить поправку, которая равна 9 ч.

Смотрите также архив погоды в соседних городах и на ближайших метеорологических станциях:

Погода в Алдане (Якутия, Россия) (110 км)
Погода в Канкунском (Якутия, Россия) (138 км)
Погода в Нерюнгри (Якутия, Россия) (154 км)
Погода в Джикимде (Якутия, Россия) (157 км)
Погода в Томмоте (Якутия, Россия) (176 км)
Погода в Усть-Нюкже (Амурская область, Россия) (212 км)
Погода в Нагорном (Якутия, Россия) (243 км)
Погода в Тяне (Якутия, Россия) (249 км)
Погода в Буяге (Якутия, Россия) (260 км)
Погода в Лопче (Амурская область, Россия) (263 км)

Пояснения к столбцам:

Ветер - указаны скорость ветра в м/с - средняя за 10 мин, порывы в срок и между сроками (в фигурных скобках) и направление, откуда дует ветер: С - северный, СВ - северо-восточный, В - восточный, ЮВ - юго-восточный, Ю - южный, ЮЗ - юго-западный, З - западный, СЗ - северо-западный.
Видимость - горизонтальная дальность видимости в метрах или километрах. При видимости от 1 до 10 км при отсутствии осадков обычно наблюдается дымка, при ухудшении видимости до 1 км и менее - туман. В сухую погоду видимость может ухудшаться дымом, пылью или мглою.
Явления - указаны атмосферные явления, наблюдавшиеся в срок или в последний час перед сроком; фигурными скобками обозначены явления, наблюдавшиеся между сроками (за 1-3 часа до срока); квадратными скобками обозначены град или гололедные отложения с указанием их диаметра в мм.
Облачность - указаны через наклонную черту общая и нижняя облачность в баллах и высота нижней границы облаков в метрах; квадратными скобками обозначены формы облаков: Ci - перистые, Cs - перисто-слоистые, Cc - перисто-кучевые, Ac - высококучевые, As - высокослоистые, Sc - слоисто-кучевые, Ns - слоисто-дождевые, Cu - кучевые, Cb - кучево-дождевые. Подробнее классификацию облаков см. в Атласе облаков (PDF).
T - Температура воздуха - температура, измеренная на высоте 2 м над землей.
Td - Температура точки росы - температура, при понижении до которой содержащийся в воздухе водяной пар достигнет насыщения.
f - Относительная влажность воздуха - влажноcть воздуха, измеренная на высоте 2 м над землей.
Te - Эффективная температура - температура, которую ощущает одетый по сезону человек в тени. Характеристика душности погоды. При расчете учитывается влияние влажности воздуха и скорости ветра на теплоощущения человека.
Tes - Эффективная температура на солнце - температура, которую ощущает человек, с поправкой на солнечный нагрев. Характеристика знойности погоды. Зависит от высоты солнца над горизонтом, облачности и скорости ветра. Ночью, в пасмурную погоду, а также при ветре 12 м/с и более поправка равна нулю.
P - Атмосферное давление - приведенное к уровню моря атмосферное давление.
Po - Атмосферное давление - измеренное на уровне метеостанции атмосферное давление.
Tmin - Минимальная температура - минимум температуры воздуха на высоте 2 м над землей.
Tmax - Максимальная температура - максимум температуры воздуха на высоте 2 м над землей.
R - Количество осадков - Количество выпавших осадков за период времени, мм. При наведении курсора мыши на число - период времени, за который выпало указанное количество осадков.
R24 - Количество осадков - Количество выпавших осадков за 24 часа, мм.
S - Снежный покров - Высота снежного покрова, см. При наведении курсора мыши на число - состояние снежного покрова и степень покрытия местности в баллах.